Back to catalog

FENGYUN 1C DEB

AlivePO
NORAD 32409·DEBRIS·🇨🇳 China

Launched May 10, 1999 from Taiyuan Satellite Launch Center

Loading…

Next Passes (next 24 hours)

TLE

AgingSource: Space-Track

Epoch: Sep 7, 2026, 21:05 UTC

1 32409U 99025CZV 26250.87851056  .00007302  00000-0  87633-3 0  9990
2 32409  99.5593 111.2465 0036212  43.5121 329.0676 14.83948273628222

Track FENGYUN 1C DEB in real time with AllMySat

Download on the App Store